This is the latest recevied weather packets stored in our database for station/object KN6CW-3. If no packets are shown the sender has not sent any weather packets the latest 10 day(s).
| Time | Temp. | Humidity | Pressure | Rain* | Wind** | Luminosity | Snow |
|---|---|---|---|---|---|---|---|
| 1777925888 | 19.44° C | 41% | 1009.5 hPa | 0 mm | - | 663 W/m² | - |
| 1777925588 | 19.44° C | 41% | 1009.6 hPa | 0 mm | - | 673 W/m² | - |
| 1777925287 | 18.89° C | 42% | 1009.6 hPa | 0 mm | - | 710 W/m² | - |
| 1777924987 | 18.89° C | 42% | 1009.7 hPa | 0 mm | - | 123 W/m² | - |
| 1777924687 | 18.89° C | 43% | 1009.7 hPa | 0 mm | - | 160 W/m² | - |
| 1777924387 | 19.44° C | 41% | 1009.8 hPa | 0 mm | - | 125 W/m² | - |
| 1777924088 | 20° C | 40% | 1009.8 hPa | 0 mm | - | 752 W/m² | - |
| 1777923785 | 19.44° C | 42% | 1009.8 hPa | 0 mm | - | 745 W/m² | - |
| 1777923485 | 19.44° C | 41% | 1009.9 hPa | 0 mm | - | 810 W/m² | - |
| 1777922885 | 19.44° C | 41% | 1010 hPa | 0 mm | - | 823 W/m² | - |
| 1777922585 | 20° C | 40% | 1010 hPa | 0 mm | - | 800 W/m² | - |
| 1777922285 | 19.44° C | 43% | 1010.1 hPa | 0 mm | - | 828 W/m² | - |
| 1777921985 | 18.89° C | 42% | 1010.1 hPa | 0 mm | - | 842 W/m² | - |
| 1777921684 | 19.44° C | 42% | 1010.3 hPa | 0 mm | - | 868 W/m² | - |
| 1777921383 | 19.44° C | 40% | 1010.2 hPa | 0 mm | - | 870 W/m² | - |
| 1777921083 | 19.44° C | 42% | 1010.3 hPa | 0 mm | - | 889 W/m² | - |
| 1777920482 | 18.89° C | 43% | 1010.4 hPa | 0 mm | - | 925 W/m² | - |
| 1777920182 | 18.33° C | 42% | 1010.5 hPa | 0 mm | - | 220 W/m² | - |
| 1777919882 | 18.33° C | 41% | 1010.6 hPa | 0 mm | - | 635 W/m² | - |
| 1777919582 | 18.89° C | 42% | 1010.6 hPa | 0 mm | - | 512 W/m² | - |
| 1777919281 | 18.89° C | 43% | 1010.8 hPa | 0 mm | - | 561 W/m² | - |
| 1777918981 | 18.89° C | 43% | 1010.7 hPa | 0 mm | - | 925 W/m² | - |
| 1777918681 | 18.33° C | 43% | 1010.6 hPa | 0 mm | - | 902 W/m² | - |
| 1777918380 | 18.33° C | 43% | 1010.7 hPa | 0 mm | - | 896 W/m² | - |
| 1777918080 | 18.33° C | 43% | 1010.8 hPa | 0 mm | - | 896 W/m² | - |
* Rain latest hour (hover to see other rain measurements)
** Current wind speed in m/s (hover to see current wind gust speed)